Regional Weather Roundup
Issued by NWS

Home | Current Version | Previous Version | Text Only | Print | Product List | Glossary On
Versions: 1 2 3 4 5 6 7 8 9 10 11 12 13 14 15 16 17 18 19 20 21 22 23 24 25 26 27 28 29 30 31 32 33 34 35 36 37 38 39 40 41 42 43 44 45 46 47 48 49 50
000
ASHW40 PHFO 090032
RWRHI

WEATHER ROUNDUP FOR HAWAII
NATIONAL WEATHER SERVICE HONOLULU HI
200 PM HST MON FEB 08 2016

THIS IS AN AUTOMATED REPORT THAT HAS NOT BEEN QUALITY CONTROLLED.

NOTE..."FAIR" INDICATES FEW OR NO CLOUDS BELOW 12,000 FEET WITH NO
SIGNIFICANT WEATHER AND/OR OBSTRUCTIONS TO VISIBILITY.

* - THESE SITES REPORT LIMITED FIELDS

HIZ001>004-090100-
KAUAI-NIIHAU-

CITY           SKY/WX    TMP DP  RH WIND       PRES   REMARKS
LIHUE APT      SUNNY     73  51  46 NE12G20   30.00F
PORT ALLEN*      N/A     77 N/A N/A W9          N/A
POIPU*           N/A     77 N/A N/A E5G12       N/A
PRINCEVILLE*     N/A     72 N/A N/A N6          N/A
KOKOLE POINT*  NOT AVBL
MOLOAA DAIRY*    N/A     79  54  41 N3G10       N/A
WAIMEA HTS*    NOT AVBL
PUU OPAE*      NOT AVBL
PUU LUA*       NOT AVBL
MAKAHA RIDGE*    N/A     70  52  52 VRB3G12     N/A
$$

HIZ005>011-090100-
OAHU-

CITY           SKY/WX    TMP DP  RH WIND       PRES   REMARKS
HONOLULU       MOSUNNY   77  52  41 VRB3      29.95F
KALAELOA       SUNNY     77  52  41 SW10      29.98F
KANEOHE MCB    SUNNY     75  55  49 N9        29.95F
WHEELER FIELD  FAIR      73  55  54 NW12      29.95F
BELLOWS*         N/A    N/A N/A N/A NE7         N/A
KAHUKU*          N/A    N/A N/A N/A VRB3        N/A
WHEELER*       NOT AVBL
WAIANAE HARBOR NOT AVBL
DILLINGHAM*      N/A     81  54  39 MISG        N/A
KAHUKU TRN*      N/A     59  39  47 NE5G12      N/A
KAWAILOA*        N/A     70  52  52 NE8G16      N/A
KII*             N/A     73  54  49 NE6G12      N/A
MAKUA RANGE*     N/A     75  54  46 NE12G21     N/A
OAHU FOREST NW NOT AVBL
SCHOFIELD BRK*   N/A     72  54  53 MISG        N/A
SCHOFIELD S*   NOT AVBL
WAIANAE VLY*   NOT AVBL
KUAOKALA*      NOT AVBL
HONOULIUULI*   NOT AVBL
MOKUOLOE IS*   NOT AVBL
PALEHUA*       NOT AVBL
WAIAWA PHB*    NOT AVBL
$$

HIZ012>013-090100-
MOLOKAI-

CITY           SKY/WX    TMP DP  RH WIND       PRES   REMARKS
MOLOKAI AIRPT  SUNNY     75  50  41 N12G20    29.96F
KALAUPAPA      NOT AVBL
MAKAPULAPAI*     N/A     75  50  41 E9          N/A
MOLOKAI 1*     NOT AVBL
PUU ALII*        N/A     62  53  71 W1          N/A
$$

HIZ016-090100-
KAHOOLAWE-

CITY           SKY/WX    TMP DP  RH WIND       PRES   REMARKS
KAHOOLAWE*       N/A     72 N/A N/A E1          N/A
HAKIOAWA*        N/A     74  54  48 MISG      30.35F
HONOKANAIA*      N/A     78  52  39 SE7G20    29.91F
KANELOA*         N/A     75  54  46 NE12G18   30.04F
KEALIALALO*      N/A     75  54  46 VRB7G18   29.93F
LUA MAKIKA*    NOT AVBL
$$

HIZ014>015-090100-
LANAI-

CITY           SKY/WX    TMP DP  RH WIND       PRES   REMARKS
LANAI CITY     FAIR      70  51  51 SW10      29.98F
LANAI 1*       NOT AVBL
$$

HIZ017>028-090100-
MAUI-

CITY           SKY/WX    TMP DP  RH WIND       PRES   REMARKS
KAHULUI        SUNNY     76  51  41 NE12G17   29.96F
KAPALUA-W MAUI SUNNY     75  50  41 N16       29.96
HANA AIRPORT   SUNNY     73  32  21 NE5       29.98F
HANA*            N/A     73 N/A N/A N6          N/A
HALEAKALA SUMM   N/A     54  16  22 NW8         N/A
MAALAEA BAY*     N/A     77 N/A N/A NE10G20     N/A
HALEAKALA*     NOT AVBL
KAUPO GAP*     NOT AVBL
KULA 1*          N/A     68  39  34 W5          N/A
$$

HIZ023>026-090100-
BIG ISLAND OF HAWAII COAST AND LOWER SLOPES-

CITY           SKY/WX    TMP DP  RH WIND       PRES   REMARKS
KAILUA KONA    NOT AVBL
HILO           SUNNY     79  54  41 N10       29.96F
HONOKAA*         N/A     72 N/A N/A VRB1        N/A
KAWAIHAE MWT*    N/A     79 N/A N/A W7          N/A
KAWAIHAE*        N/A     75 N/A N/A W7        29.90F
SOUTH POINT*     N/A     73 N/A N/A NE13G22     N/A
UPOLU AIRPORT*   N/A    N/A N/A N/A NE14        N/A
KAMUELA*       CLEAR     73  54  49 NE8       29.99F
HAKALAU*         N/A     65  50  59 E5G10       N/A
KALOKO-HONOKO*   N/A     81  59  47 CALM        N/A
PALI 2*          N/A     70  54  56 S10G17      N/A
KEALAKOMO*       N/A     79  59  50 E23G30      N/A
KAUPULEHU*     NOT AVBL
KAPAPALA*        N/A     73  56  54 SE6G16      N/A
LOWER KAHUKU*    N/A     66 -36   1 S2G12       N/A
PUHE CS*         N/A     79  52  38 W3G9        N/A
PUHO CS*         N/A     82  57  42 SW3G9       N/A
PTA KEAMUKU*     N/A     70  48  46 CALM        N/A
WAIKOLOA*      NOT AVBL
$$

HIZ027>028-090100-
BIG ISLAND OF HAWAII INTERIOR AND SUMMMITS-

CITY           SKY/WX    TMP DP  RH WIND       PRES   REMARKS
BRADSHAW FIELD SUNNY     65  40  39 W8G15     30.20F
MK VISITOR CEN   N/A     55  28  35 SW7         N/A
MAUNA KEA*       N/A     46   0  14 N7          N/A
MAUNA LOA*       N/A    N/A N/A N/A MISG        N/A
MAUNA LOA 1*   NOT AVBL
PTA KIPUKA*      N/A     36  10  35 N5G10       N/A
PTA RANGE 17*    N/A     36  14  41 W6G13       N/A
PTA WEST*        N/A    N/A N/A N/A NW5G13      N/A
NENE CABIN*      N/A     59  50  72 S6G14       N/A
AHUMOA*        NOT AVBL
PTA PORTABLE*  NOT AVBL
PUU MALI*        N/A     61  37  41 NW8         N/A
$$

HIC003-090100-
NORTHWEST ISLANDS-

CITY           SKY/WX    TMP DP  RH WIND       PRES   REMARKS
MIDWAY ISLAND  LGT RAIN  70  64  83 W15       30.03F FOG
MIDWAY NOS*      N/A     68 N/A N/A MISG      30.02F
FRENCH FRIGATE NOT AVBL
$$

PHZ110>124-180-090100-
BUOY REPORTS

STATION/POSITION TIME  TEMP    WIND        PRES    WAVE   SWELL
                       AIR SEA DIR/SP/G            HT/PER HT/DIR
                 (UTC) (F)     (DEG/KT/KT) (MB)    (FT/S) (FT/D)
BUOY 51001       0000   69 76  240/ 10/ 14 1015.6F
BUOY 51101       2350   70 75  230/ 10/ 14 1016.0F  12/13  11/320
BUOY 51100       NOT AVBL
BUOY 51002       2350   76 78   70/ 17/ 21 1012.8F  10/11   8/ 10
BUOY 51003       2350   72 78   40/ 14/ 16 1014.7F  11/12  10/350
BUOY 51004       2350   74 77   40/ 17/ 19 1012.8F  10/11  10/350
BARBERS PT BUOY  NOT AVBL
WAIMEA BAY BUOY  0004      78                N/A     9/13   7/340
KAILUA BAY BUOY  0011      77                N/A     9/13   7/360
LANAI BUOY       NOT AVBL
BARBERS PT 2     0003      77                N/A     7/12   5/320
PAUWELA MAUI     0007      77                N/A    12/13  10/340
HILO             NOT AVBL
KANEOHE BAY BUOY 0006      77                N/A     9/12   7/360
HANALEI KAUAI    0001      77                N/A    13/13  11/340
KAHULUI HARBOR   0000   71 76   10/  7/ 12 1014.0F
HONOLULU HARBOR  0000   74 76   50/  8/ 14 1014.6F
KILO NALU        NOT AVBL
HILO HARBOR      0000   76 76   40/  8/ 10 1014.1F
MOKUOLOE         2300   71 76   10/  6/  7 1015.7F
NAWILIWILI       0000   71 78   60/  7/ 11 1015.4F
WHOTS BUOY       NOT AVBL
BUOY 51028       NOT AVBL
$$

......................KEY........................................
  SKY/WX - SKY CONDITIONS/PRESENT WEATHER
  TMP    - TEMPERATURE IN FAHRENHEIT
  DWPT   - DEWPOINT IN FAHRENHEIT
  RH     - RELATIVE HUMIDITY IN PERCENT
  WIND   - DIRECTION AND SPEED /MPH FOR ISLANDS...KTS FOR BUOYS/
  PRES   - MEAN SEA LEVEL PRESSURE IN INCHES OF HG
  VSB    - VISIBILITY IN MILES
  HX     - HEAT INDEX
  WCI    - WIND CHILL INDEX
  VRB    - VARIABLE WIND DIRECTION
  N/A    - NOT AVAILABLE



USA.gov is the U.S. government's official web portal to all federal, state and local government web resources and services.